This demonstration page uses our WeatherBlox Daily Observations layout. Learn more.

Left ArrowRight Arrow

Hourly Observations for May 1, 2019

Temp ( °F °C ) Dew Point ( °F °C ) Humidity (%) Winds ( mph kmh ) Pressure ( in mb ) Visibility ( mi km ) Precip ( " mm )
12:09 am 00:09 Cloudy with Thunderstorms 60 15.6 58 14.4 93 93 NE 3 6 29.89 1012 5 8 0.06 1.52
12:24 am 00:24 Cloudy with Rain 60 15.6 57 13.9 90 90 ESE 7 11 29.91 1013 7 11 0.11 2.79
12:44 am 00:44 Cloudy with Nearby Thunderstorms 60 15.6 58 14.4 93 93 SE 6 9 29.93 1014 10 16 0.15 3.81
12:52 am 00:52 Cloudy with Nearby Thunderstorms 60 15.6 58 14.4 93 93 Calm 29.92 1013 6 10 0.17 4.32
1:05 am 01:05 Cloudy with Thunderstorms 59 15 57 13.9 93 93 SE 5 7 29.96 1014 5 8 0.05 1.27
1:20 am 01:20 Cloudy with Rain 59 15 57 13.9 93 93 SSE 8 13 29.95 1014 5 8 0.12 3.05
1:28 am 01:28 Cloudy with Nearby Thunderstorms 60 15.6 57 13.9 90 90 SE 9 15 29.93 1014 6 10 0.15 3.81
1:52 am 01:52 Cloudy with Nearby Thunderstorms 59 15 58 14.4 96 96 SE 10 17 29.91 1013 5 8 0.29 7.37
2:02 am 02:02 Cloudy with Heavy Rain 60 15.6 58 14.4 93 93 SSE 8 13 29.92 1013 5 8 0.05 1.27
2:37 am 02:37 Cloudy with Nearby Thunderstorms 60 15.6 58 14.4 93 93 SSE 10 17 29.93 1014 6 10 0.16 4.06
2:52 am 02:52 Cloudy with Nearby Thunderstorms 60 15.6 57 13.9 90 90 SSE 14 22 29.92 1013 5 8 0.24 6.10
3:26 am 03:26 Cloudy with Light Rain 60 15.6 56 13.3 86 86 SE 16 26 29.83 1010 10 16 0.08 2.03
3:52 am 03:52 Mostly Clear 60 15.6 56 13.3 86 86 SE 14 22 29.83 1010 10 16 0.08 2.03
4:52 am 04:52 Clear 60 15.6 56 13.3 86 86 SSE 12 19 29.85 1011 10 16 0.00 0.00
5:52 am 05:52 Clear 59 15 56 13.3 90 90 S 12 19 29.90 1013 10 16 0.00 0.00
6:52 am 06:52 Sunny 59 15 56 13.3 90 90 S 10 17 29.92 1013 10 16 0.00 0.00
7:52 am 07:52 Sunny 59 15 56 13.3 90 90 SSE 14 22 29.93 1014 10 16 0.00 0.00
8:14 am 08:14 Partly Cloudy 60 15.6 56 13.3 86 86 SSE 18 30 29.90 1013 10 16 0.00 0.00
8:40 am 08:40 Cloudy 60 15.6 57 13.9 90 90 SSE 13 20 29.89 1012 10 16 0.00 0.00
8:52 am 08:52 Cloudy 60 15.6 57 13.9 90 90 SSE 14 22 29.87 1012 10 16 0.00 0.00
9:10 am 09:10 Cloudy 60 15.6 57 13.9 90 90 SE 16 26 29.86 1011 10 16 0.00 0.00
9:52 am 09:52 Cloudy 61 16.1 58 14.4 90 90 NW 5 7 29.94 1014 10 16 0.00 0.00
10:02 am 10:02 Cloudy 62 16.7 58 14.4 86 86 N 3 6 29.95 1014 10 16 0.00 0.00
10:26 am 10:26 Partly Cloudy 63 17.2 58 14.4 84 84 NNE 6 9 29.94 1014 10 16 0.00 0.00
10:52 am 10:52 Sunny 66 18.9 59 15 78 78 Calm 29.95 1014 10 16 0.00 0.00
11:12 am 11:12 Mostly Cloudy 65 18.3 58 14.4 78 78 Calm 29.95 1014 10 16 0.00 0.00
11:30 am 11:30 Cloudy 66 18.9 58 14.4 75 75 Calm 29.96 1015 10 16 0.00 0.00
11:52 am 11:52 Mostly Cloudy 66 18.9 59 15 78 78 S 6 9 29.97 1015 10 16 0.00 0.00
12:06 pm 12:06 Partly Cloudy 67 19.4 59 15 76 76 VRB 6 9 29.96 1014 10 16 0.00 0.00
12:34 pm 12:34 Mostly Cloudy 68 20 58 14.4 70 70 Calm 29.94 1014 10 16 0.00 0.00
12:52 pm 12:52 Mostly Cloudy 69 20.6 59 15 70 70 SSW 5 7 29.95 1014 10 16 0.00 0.00
1:50 pm 13:50 Partly Cloudy 72 22 61 16 69 69 VRB 7 11 29.93 1014 10 16 0.00 0.00
1:52 pm 13:52 Partly Cloudy 72 22.2 61 16.1 68 68 SW 7 11 29.96 1014 10 16 0.00 0.00
2:00 pm 14:00 Mostly Cloudy 72 22.2 60 15.6 66 66 WSW 3 6 29.93 1014 10 16 0.00 0.00
2:13 pm 14:13 Partly Cloudy 71 21.7 59 15 66 66 VRB 3 6 29.94 1014 10 16 0.00 0.00
2:52 pm 14:52 Mostly Sunny 74 23.3 62 16.7 67 67 VRB 7 11 29.95 1014 10 16 0.00 0.00
3:52 pm 15:52 Mostly Cloudy 75 23.9 61 16.1 62 62 SSW 9 15 29.94 1014 10 16 0.00 0.00
4:52 pm 16:52 Partly Cloudy 75 23.9 62 16.7 64 64 S 9 15 29.93 1014 10 16 0.00 0.00
5:52 pm 17:52 Mostly Cloudy 75 23.9 62 16.7 64 64 S 12 19 29.93 1014 10 16 0.00 0.00
6:52 pm 18:52 Mostly Cloudy 73 22.8 62 16.7 69 69 SSE 8 13 29.94 1014 10 16 0.00 0.00
7:52 pm 19:52 Mostly Cloudy 71 21.7 61 16.1 71 71 SSE 8 13 29.95 1014 10 16 0.00 0.00
8:52 pm 20:52 Clear 70 21.1 61 16.1 73 73 SSE 10 17 29.95 1014 10 16 0.00 0.00
9:52 pm 21:52 Clear 69 20.6 62 16.7 78 78 SSE 10 17 29.95 1014 10 16 0.00 0.00
10:52 pm 22:52 Partly Cloudy 69 20.6 62 16.7 78 78 SSE 10 17 29.94 1014 10 16 0.00 0.00
11:52 pm 23:52 Clear 68 20 61 16.1 78 78 SSE 12 19 29.95 1014 10 16 0.00 0.00

Powered by AerisWeather